Flag for France Weather past 2 weeks in Besançon, France

Now
59 °F

Low clouds.


Feels Like: 58 °F
Forecast: 50 / 69 °F
Wind: 7 mph from North

Location: Dole Tavaux

Current Time: Sep 2, 2015 at 10:54:40 AM

Latest Report: Sep 2, 2015 at 10:30 AM


Visibility: 6 mi

Pressure: 30.04 "Hg

Humidity: 100%

Dew point: 59 °F

Location of BesançonLocation

Historic Weather in Besançon — Graph

°F

Besançon temperature yesterday

Maximum temperature yesterday: 72 °F (at 1:00 AM)
Minimum temperature yesterday: 59 °F (at 11:00 PM)
Average temperature yesterday: 67 °F

Past Weeks' High & Low Weather Summary

 TemperatureHumidityPressure
High91 °F (Aug 29, 5:00 PM)100% (Aug 20, 5:00 AM)30.21 "Hg (Aug 20, 5:00 AM)
Low50 °F (Aug 19, 7:00 AM)24% (Aug 30, 5:30 PM)29.65 "Hg (Aug 24, 6:00 AM)
Average69 °F67%30.01 "Hg
* Reported Aug 18 9:00 AM — Sep 2 9:30 AM, Besançon, Weather by CustomWeather, © 2015

Note: Actual official high and low records may vary slightly from our data, if they occured in-between our weather recording intervals... More about our weather records

Advertising

Besançon weather history for previous 24 hours

 ConditionsComfort  
Time TempWeatherWind HumidityBarometerVisibility
9:30 AM
Wed, Sep 2
59 °FFog.6 mph100%30.04 "Hg1 mi
9:00 AM57 °FFog.6 mph100%30.04 "Hg1 mi
8:30 AM57 °FFog.5 mph100%30.04 "Hg1 mi
8:00 AM57 °FFog.3 mph100%30.04 "Hg1 mi
7:30 AM57 °FFog.5 mph100%30.04 "Hg1 mi
7:00 AM57 °FFog.5 mph100%30.04 "Hg1 mi
6:30 AM57 °FFog.5 mph100%30.04 "Hg1 mi
5:30 AM57 °FFog.1 mph100%30.04 "Hg1 mi
5:00 AM57 °FFog.2 mph100%30.04 "Hg1 mi
4:30 AM57 °FFog.2 mph100%30.07 "Hg1 mi
4:00 AM57 °FFog.3 mph100%30.07 "Hg0 mi
3:30 AM59 °FFog.5 mph100%30.07 "Hg0 mi
3:00 AM59 °FFog.2 mph100%30.07 "Hg0 mi
2:30 AM59 °FFog.3 mph100%30.07 "Hg0 mi
2:00 AM59 °FFog.3 mph100%30.07 "Hg1 mi
1:30 AM59 °FLight fog.2 mph94%30.09 "Hg5 mi
1:00 AM59 °FPassing clouds.3 mph100%30.09 "HgN/A
11:30 PM
Tue, Sep 1
59 °FPassing clouds.3 mph100%30.09 "HgN/A
11:00 PM59 °FPartly cloudy.No wind100%30.09 "HgN/A
10:30 PM61 °FClear.1 mph94%30.09 "Hg10 mi
10:00 PM61 °FSunny.2 mph94%30.09 "Hg10 mi
9:30 PM61 °FSunny.3 mph94%30.09 "Hg10 mi
9:00 PM63 °FSunny.2 mph88%30.07 "Hg10 mi
8:30 PM64 °FSunny.1 mph83%30.07 "Hg10 mi
8:00 PM66 °FPassing clouds.3 mph78%30.07 "HgN/A
7:30 PM66 °FPassing clouds.5 mph78%30.07 "HgN/A
7:00 PM66 °FPassing clouds.3 mph83%30.07 "HgN/A
6:30 PM64 °FSunny.7 mph83%30.07 "Hg10 mi
6:00 PM66 °FBroken clouds.12 mph83%30.07 "HgN/A
5:00 PM70 °FMostly cloudy.10 mph73%30.04 "HgN/A
4:30 PM68 °FMore clouds than sun.10 mph83%30.04 "HgN/A
4:00 PM68 °FPartly sunny.12 mph78%30.04 "HgN/A
3:30 PM68 °FBroken clouds.12 mph83%30.04 "HgN/A
3:00 PM66 °FBroken clouds.9 mph83%30.01 "HgN/A
2:30 PM68 °FMostly cloudy.13 mph88%30.01 "HgN/A
2:00 PM66 °FBroken clouds.13 mph88%29.98 "HgN/A
1:30 PM66 °FLight rain. Broken clouds.10 mph94%29.98 "HgN/A
1:00 PM64 °FRain. Fog.10 mph94%29.98 "Hg2 mi
12:30 PM66 °FHeavy rain. Fog.14 mph94%29.95 "Hg3 mi
12:00 PM70 °FMostly cloudy.12 mph78%29.95 "HgN/A
11:30 AM70 °FLight rain. More clouds than sun.9 mph83%29.95 "HgN/A
11:00 AM70 °FMostly cloudy.9 mph78%29.92 "HgN/A
10:30 AM72 °FMostly cloudy.10 mph73%29.92 "HgN/A
10:00 AM70 °FSunny.10 mph78%29.89 "Hg10 mi
Weather by CustomWeather, © 2015

See weather overviewHow to use our weather pages